View from above orbital plane
|
View from above satellite
|
Ground track
|
The orbit data is extracted from the following two-line orbital elements,
1 39679U 14021B 21103.13323270 .00000412 00000-0 37594-4 0 9999
2 39679 51.6160 156.2768 0169945 264.5522 93.6042 15.06874754384523
Epoch (UTC): | 13 April 2021 03:11:51 |
Eccentricity: | 0.0169945 |
inclination: | 51.6160° |
perigee height: | 428 km |
apogee height: | 663 km |
right ascension of ascending node: | 156.2768° |
argument of perigee: | 264.5522° |
revolutions per day: | 15.06874754 |
mean anomaly at epoch: | 93.6042° |
orbit number at epoch: | 38452 |
The dashed part of the orbit path shows where the satellite is in the earth's shadow,
|
|